Simultaneous Nadir Overpasses (SNOs) Predictions

Prediction of SNOs between METOP-C and LANDSAT-8 Satellite Orbit:

Table of predicted SNOs for the next 14.0 days since TLE Epoch: 7/25/2020
Index Date (METOP-C) Time (METOP-C) Lat,Lon (METOP-C) SZA (METOP-C ) Date (LANDSAT-8) Time (LANDSAT-8) Lat,Lon (LANDSAT-8) SZA (LANDSAT-8 ) Distance(km) Time Diff (sec)
1 07/27/2020 19:03:13 81.14, -65.47 64.19 07/27/2020 19:03:31 81.15, -65.43 64.21 0.89 18
2 07/27/2020 19:53:52 -81.16, 102.39 115.74 07/27/2020 19:52:57 -81.17, 102.51 115.75 2.14 55
3 07/30/2020 14:37:33 81.14, 1.03 64.87 07/30/2020 14:37:46 81.15, 0.99 64.88 0.76 13
4 07/30/2020 15:28:12 -81.16, 168.89 115.06 07/30/2020 15:27:12 -81.17, 168.96 115.07 1.35 60
5 08/02/2020 10:11:54 81.15, 67.52 65.60 08/02/2020 10:12:02 81.14, 67.39 65.58 2.24 8
6 08/02/2020 11:02:33 -81.16,-124.63 114.33 08/02/2020 11:01:28 -81.17,-124.61 114.36 0.41 65
7 08/05/2020 05:46:16 81.14, 133.61 66.31 08/05/2020 05:46:18 81.14, 133.78 66.33 2.82 2
8 08/05/2020 06:36:54 -81.17, -58.15 113.57 08/05/2020 06:35:44 -81.16, -58.19 113.61 0.71 70
9 08/08/2020 00:29:55 -81.14, 32.69 112.92 08/08/2020 00:31:07 -81.14, 32.52 112.90 2.82 72
10 08/08/2020 01:20:36 81.14,-159.93 67.10 08/08/2020 01:20:33 81.14,-159.85 67.11 1.30 3
